Regional Weather Roundup
Issued by NWS

Home | Current Version | Previous Version | Text Only | Print | Product List | Glossary Off
Versions: 1 2 3 4 5 6 7 8 9 10 11 12 13 14 15 16 17 18 19 20 21 22 23 24 25 26 27 28 29 30 31 32 33 34 35 36 37 38 39 40 41 42 43 44 45 46 47 48 49 50

884
ASUS43 KMPX 122110
RWRMN
WEATHER ROUNDUP FOR MINNESOTA
NATIONAL WEATHER SERVICE TWIN CITIES/CHANHASSEN MN
300 PM CST FRI FEB 12 2016


NOTE: "FAIR" INDICATES FEW OR NO CLOUDS BELOW 12,000 FEET WITH NO
SIGNIFICANT WEATHER AND/OR OBSTRUCTIONS TO VISIBILITY. N/A MEANS
CURRENT SKY AND/OR WEATHER CONDITIONS ARE NOT AVAILABLE.

MNZ060>063-068>070-122200-
   Twin Cities Metro

CITY           SKY/WX    TMP DP  RH WIND       PRES   REMARKS
TWIN CITIES    SUNNY     10  -9  42 NW18G32   30.47R WCI  -8
ST PAUL        SUNNY     10  -9  42 NW18G29   30.49R WCI  -8
CRYSTAL        SUNNY      9 -10  42 NW14G23   30.47R WCI  -7
BLAINE         SUNNY     10  -9  40 N15       30.46R WCI  -6
LAKEVILLE      SUNNY      9  -8  47 NW15      30.45R WCI  -8
EDEN PRAIRIE   SUNNY     10 -10  40 NW18G26   30.46S WCI  -8
SOUTH ST PAUL  SUNNY     11 -10  38 NW16      30.46R WCI  -6
LAKE ELMO      FAIR      10  -9  40 NW20      30.45S WCI  -8
$$
MNZ001>005-007-008-013>017-022>024-027-028-122200-
   Northwest Minnesota

CITY           SKY/WX    TMP DP  RH WIND       PRES   REMARKS
BEMIDJI        SUNNY     -2 -14  56 NW17      30.51R WCI -24
HALLOCK        SUNNY     -4 -13  65 NW14      30.66S WCI -24
ROSEAU         SUNNY     -2 -15  55 W12       30.57R WCI -20
WARROAD        SUNNY     -2 -15  55 NW10      30.55R WCI -19
THIEF RVR FALL SUNNY     -6 -18  54 NW16      30.60S WCI -28
CROOKSTON      CLOUDY    -2  -9  71 NW15      30.66S WCI -22
FOSSTON          N/A      0 -15  50 NW10      30.58R WCI -17
DETROIT LAKES  SUNNY      0  -8  71 NW15      30.58R WCI -20
MOORHEAD       SUNNY      1  -9  60 NW16      30.65R WCI -18
PARK RAPIDS    SUNNY      3 -14  45 NW17      30.49R WCI -17
MAHNOMEN       FAIR      -4 -13  67 NW15      30.58S WCI -25
$$
MNZ006-009>011-018-025>026-122200-
   North Central Minnesota

CITY           SKY/WX    TMP DP  RH WIND       PRES   REMARKS
BAUDETTE       SUNNY     -4 -18  51 NW16      30.50S WCI -25
FLAG ISLAND    SUNNY     -6 -17  59 NW16      30.53R WCI -28
INTL FALLS     SUNNY     -4 -19  48 W14G25    30.46R WCI -24
WASKISH        SUNNY      0 -15  50 W10       30.51S WCI -17
LONGVILLE      SUNNY      1 -15  46 W9        30.48S WCI -14
GRAND RAPIDS   SUNNY      0 -15  50 NW16      30.44R WCI -21
CRANE LAKE     SUNNY     -2 -18  46 W12G18    30.45R WCI -20
ORR            SUNNY     -2 -20  42 NW17      30.39R WCI -24
COOK           SUNNY      0 -18  42 NW9G17    30.41S WCI -16
WALKER         FAIR       0 -15  49 W12G18    30.49R WCI -17
$$
MNZ012-019>021-037-122200-
   Northeast Minnesota

CITY           SKY/WX    TMP DP  RH WIND       PRES   REMARKS
DULUTH         MOSUNNY    1 -17  42 NW18G29   30.36R WCI -20
ELY            SUNNY     -2 -17  50 W12G24    30.35S WCI -20
HIBBING        SUNNY     -2 -16  51 NW17G25   30.41R WCI -23
EVELETH        SUNNY      1 -18  39 NW14G25   30.40S WCI -17
DULUTH HARBOR  SUNNY      7 -15  36 NW20G25   30.46S WCI -13
TWO HARBORS    SUNNY      7 -15  36 NW9G23    30.36R WCI  -7
SILVER BAY     SUNNY      5 -17  36 W7        30.34R WCI  -7
GRAND MARAIS     N/A      2 -16  42 VRB7      30.37R WCI -11
G MARAIS ARPRT MOSUNNY   -6 -20  49 NW13G29   30.20R WCI -25
$$
MNZ029>031-032-039>041-046>048-054>057-064-122200-
   West Central Minnesota

CITY           SKY/WX    TMP DP  RH WIND       PRES   REMARKS
FERGUS FALLS   SUNNY      1  -9  60 N16G22    30.63R WCI -18
WHEATON        MOSUNNY    5  -4  66 NW16      30.63R WCI -14
MORRIS         SUNNY      5  -4  66 NW18      30.56S WCI -15
ALEXANDRIA     SUNNY      3 -13  47 NW17G24   30.51S WCI -17
ELBOW LAKE     FAIR       2  -9  60 W18       30.58R WCI -18
WADENA         SUNNY      1 -11  55 NW14G20   30.51R WCI -17
GLENWOOD       SUNNY      3  -9  55 NW18G24   30.51S WCI -17
APPLETON       MOSUNNY    7  -2  66 N17       30.58S WCI -12
BENSON         SUNNY      7  -6  56 N15G21    30.56R WCI -11
ORTONVILLE     MOSUNNY    3  -6  66 N16       30.60R WCI -16
MADISON        PTSUNNY    7  -2  66 N17G24    30.59S WCI -12
WILLMAR        FAIR       9  -4  56 NW17      30.53S WCI -10
$$
MNZ033>034-036-042>043-049>051-058-059-122200-
   Central Minnesota

CITY           SKY/WX    TMP DP  RH WIND       PRES   REMARKS
ST CLOUD       SUNNY      7  -9  48 NW17G23   30.49S WCI -12
SAUK CENTRE    FAIR       4 -10  52 NW18      30.50F WCI -15
PAYNESVILLE    SUNNY      6  -7  54 NW17G23   30.50F WCI -13
AITKIN         SUNNY      5 -20  30 NW8       30.46R WCI  -8
PINE RIVER     SUNNY      3 -11  51 NW12G17   30.49F WCI -13
BRAINERD       SUNNY      5 -14  41 N18       30.47F WCI -15
STAPLES        SUNNY      3 -13  47 NW15      30.49S WCI -15
LONG PRAIRIE   FAIR       5  -9  51 NW15      30.50S WCI -13
LITTLE FALLS   SUNNY      9 -15  33 NW7       30.50S WCI  -3
LITCHFIELD     SUNNY      9  -8  47 NW17G24   30.50S WCI -10
BUFFALO        SUNNY     10  -8  46 NW13      30.50S WCI  -6
MAPLE LAKE     SUNNY      9  -6  48 NW15G23   30.50R WCI  -7
$$
MNZ037-044-045-052-053-122200-
   East Central Minnesota

CITY           SKY/WX    TMP DP  RH WIND       PRES   REMARKS
PRINCETON      SUNNY      9  -9  43 NW14G22   30.47S WCI  -8
MORA           SUNNY      7 -11  43 N13G23    30.48R WCI  -9
CAMBRIDGE      SUNNY      9  -8  47 N14G22    30.45S WCI  -8
RUSH CITY      SUNNY      8 -11  41 NW12G22   30.46R WCI  -7
MOOSE LAKE     SUNNY      5 -15  39 NW16G22   30.43S WCI -14
HINCKLEY       FAIR       9 -11  40 NW15G21   30.45S WCI  -8
CLOQUET        SUNNY      1 -18  39 NW17G24   30.40R WCI -19
MCGREGOR       SUNNY      5 -13  43 NW13G20   30.45S WCI -12
$$
MNZ071>073-080-081-089-090-097-098-122200-
   Southwest Minnesota

CITY           SKY/WX    TMP DP  RH WIND       PRES   REMARKS
MONTEVIDEO     PTSUNNY    7  -2  66 N20G25    30.58R WCI -13
GRANITE FALLS  MOSUNNY    9   1  69 NW15G24   30.58R WCI  -8
CANBY          MOSUNNY    8  -1  64 W15G21    30.59R WCI  -9
MARSHALL       MOSUNNY    5  -2  72 NW22      30.55R WCI -16
REDWOOD FALLS  PTSUNNY    9  -3  58 NW17G25   30.53S WCI  -9
OLIVIA         SUNNY     12   0  57 NW20G25   30.52R WCI  -6
PIPESTONE      SUNNY      9  -9  43 N13G21    30.50R WCI  -7
WINDOM         PTSUNNY    7   0  72 NW24      30.48S HAZE    WCI -15
WORTHINGTON    SUNNY      7  -4  61 NW20      30.50R WCI -13
JACKSON        PTSUNNY    9   0  66 NW22      30.48R WCI -11
TRACY          SUNNY      7  -1  70 N18G25    30.53R WCI -12
SLAYTON        SUNNY      5  -2  74 NW16      30.50R WCI -14
$$
MNZ065>067-074>077-082>085-091>093-122200-
   South Central Minnesota

CITY           SKY/WX    TMP DP  RH WIND       PRES   REMARKS
MANKATO        SUNNY     10  -4  52 NW21G26   30.47R WCI  -9
NEW ULM        SUNNY     10  -4  52 N22       30.48R WCI  -9
ST JAMES       SUNNY     10   1  67 NW20G28   30.51R WCI  -8
FAIRMONT       MOSUNNY    9  -2  61 NW24G30   30.46R WCI -12
GLENCOE        SUNNY     10  -3  55 NW16      30.49R WCI  -7
FARIBAULT      SUNNY     10  -6  48 NW14G24   30.44S WCI  -5
OWATONNA       SUNNY      9  -4  56 NW22G30     N/A  WCI -11
WASECA         SUNNY     12   1  62 NW22      30.46S WCI  -7
ALBERT LEA     SUNNY     10  -4  52 NW15G26   30.41R WCI  -6
$$
MNZ078>079-086>088-094>096-122200-
   Southeast Minnesota

CITY           SKY/WX    TMP DP  RH WIND       PRES   REMARKS
ROCHESTER      SUNNY      9  -4  55 NW18      30.36R WCI -10
RED WING       SUNNY     10 -11  37 NW12G18   30.43R WCI  -4
STANTON        SUNNY     11  -6  46 NW18      30.43R WCI  -7
DODGE CENTER   SUNNY     10  -6  48 NW18G24   30.38R WCI  -8
WINONA         SUNNY     14  -4  44 NW20G25   30.41R WCI  -3
AUSTIN         SUNNY      9  -2  61 NW17G28   30.40R WCI -10
PRESTON        SUNNY     10  -4  53 NW22G28   30.35R WCI -10
$$
ABBREVIATIONS USED IN REMARKS
   TC - TEMPERATURES IN CELSIUS
  WCI - WIND CHILL INDEX
   HX - HEAT INDEX
  VSB - VISIBILITY
$$




USA.gov is the U.S. government's official web portal to all federal, state and local government web resources and services.